Curtin, Western Australia

6:43 AM AWST on February 08, 2016 (GMT +0800)
Curtin

Weather History for YCIN - June, 2014

Change the Weather History Date:

Wednesday, June 18, 2014

  Actual Average Record
Temperature  
Mean Temperature 68 °F -  
Max Temperature 85 °F - - ()
Min Temperature 51 °F - - ()
Cooling Degree Days 3    
Growing Degree Days 18 (Base 50)    
Moisture  
Dew Point 36 °F    
Average Humidity 29    
Maximum Humidity 54    
Minimum Humidity 8    
Precipitation  
Precipitation 0.00 in - - ()
Sea Level Pressure  
Sea Level Pressure 30.00 in    
Wind  
Wind Speed 7 mph ()    
Max Wind Speed 10 mph    
Max Gust Speed -    
T = Trace of Precipitation, MM = Missing Value Source: Averaged Metar Reports

Daily Weather History Graph

Daily Weather History Graph

Search for Another Location

Airport or City:

Trip Planner

Search our weather history database for the weather conditions in past years. The results will help you decide how hot, cold, wet, or windy it might be!

Date:

Astronomy

Jun. 18, 2014 Rise Set
Actual Time 6:13 AM AWST 5:18 PM AWST
Civil Twilight 5:49 AM AWST 5:41 PM AWST
Nautical Twilight 5:22 AM AWST 6:08 PM AWST
Astronomical Twilight 4:55 AM AWST 6:35 PM AWST
Moon 10:42 PM AWST (6/18) 10:27 AM AWST (6/18)
Length of Visible Light 11h 52m
Length of Day
11h 04m
Waning Gibbous, 68% of the Moon is Illuminated
Jun 18
Waning Gibbous
Jun 20
Last Quarter
Jun 27
New
Jul 5
First Quarter
Jul 12
Full

Hourly Weather History & Observations

Time (AWST) Temp. Dew Point Humidity Pressure Visibility Wind Dir Wind Speed Gust Speed Precip Events Conditions
12:00 AM 64 °F 32 °F 19% 30.01 in - SE 9.2 mph - -  
12:00 AM 64.4 °F 32.0 °F 30% 30.01 in - SE 9.2 mph - N/A   Unknown
1:00 AM 64.4 °F 32.0 °F 30% 30.01 in - SE 9.2 mph - N/A   Unknown
2:00 AM 62.6 °F 32.0 °F 32% 29.98 in - ESE 9.2 mph - N/A   Unknown
3:00 AM 62 °F 32 °F 21% 30.00 in - ESE 8.1 mph - -  
3:00 AM 60.8 °F 32.0 °F 34% 30.01 in - ESE 8.1 mph - N/A   Unknown
4:00 AM 59.0 °F 32.0 °F 36% 30.01 in - ESE 9.2 mph - N/A   Unknown
5:00 AM 59.0 °F 32.0 °F 36% 30.01 in - East 8.1 mph - N/A   Unknown
6:00 AM 58 °F 33 °F 27% 30.01 in - East 8.1 mph - -  
6:00 AM 57.2 °F 33.8 °F 41% 30.01 in - East 8.1 mph - N/A   Unknown
7:00 AM 59.0 °F 33.8 °F 39% 30.04 in - East 6.9 mph - N/A   Unknown
8:00 AM 66.2 °F 35.6 °F 32% 30.06 in - NNE 4.6 mph - N/A   Unknown
9:00 AM 74 °F 38 °F 17% 30.06 in - NE 10.4 mph - -  
9:00 AM 73.4 °F 39.2 °F 29% 30.06 in - NE 10.4 mph - N/A   Unknown
10:00 AM 77.0 °F 37.4 °F 24% 30.04 in - NE 10.4 mph - N/A   Unknown
11:00 AM 80.6 °F 37.4 °F 21% 30.01 in - North 9.2 mph - N/A   Unknown
12:00 PM 82 °F 37 °F 11% 29.98 in - ENE 6.9 mph - -  
12:00 PM 82.4 °F 37.4 °F 20% 29.98 in - ENE 6.9 mph - N/A   Unknown
1:00 PM 82.4 °F 33.8 °F 17% 29.95 in - NE 6.9 mph - N/A   Unknown
2:00 PM 84.2 °F 35.6 °F 18% 29.92 in - SSE 6.9 mph - N/A   Unknown
3:00 PM 85 °F 34 °F 8% 29.92 in - SE 5.8 mph - -  
3:00 PM 84.2 °F 33.8 °F 16% 29.92 in - SE 5.8 mph - N/A   Unknown
4:00 PM 84.2 °F 32.0 °F 15% 29.92 in - ENE 3.5 mph - N/A   Unknown
5:00 PM 80.6 °F 42.8 °F 26% 29.95 in - NW 8.1 mph - N/A   Unknown
6:00 PM 71 °F 40 °F 21% 29.98 in - NNW 4.6 mph - -  
6:00 PM 71.6 °F 39.2 °F 31% 29.98 in - NNW 4.6 mph - N/A   Unknown
7:00 PM 62.6 °F 37.4 °F 39% 30.01 in - NW 4.6 mph - N/A   Unknown
8:00 PM 59.0 °F 39.2 °F 48% 30.01 in - WNW 4.6 mph - N/A   Unknown
9:00 PM 57 °F 39 °F 39% 30.03 in - Calm Calm - -  
9:00 PM 57.2 °F 39.2 °F 51% 30.04 in - Calm Calm - N/A   Unknown
10:00 PM 57.2 °F 39.2 °F 51% 30.04 in - SSW 5.8 mph - N/A   Unknown
11:00 PM 55.4 °F 39.2 °F 54% 30.01 in - South 5.8 mph - N/A   Unknown